Location: *
(46.3500°N, 10.9000°E)
Time: 23:57:58
(UTC+00:00)

Vanguard 2 - Pass Details

Date: 22 April 2021
Orbit: 552 x 2938 km, 32.9° (Epoch: 12 May)

Event Time Altitude Azimuth Distance (km) Brightness Sun altitude
Rises 08:33:16 0° 198° (SSW) 6,720 12.5 41.9°
Reaches altitude 10° 08:39:39 10° 184° (S) 5,759 12.4 42.8°
Maximum altitude 08:50:32 20° 145° (SE) 4,741 12.8 44.4°
Drops below altitude 10° 09:00:08 10° 106° (ESE) 5,063 12.6 45.7°
Sets 09:05:06 0° 91° (E) 5,707 12.5 46.3°
